Starlink 5334

operational
NORAD ID: 56509 Int'l Des: 2023-065 Owner: SPXS Country: US Constellation: starlink
LEOCIRCULAR

About Starlink 5334

Description loading...

Live Position

Loading 3D Globe...

Upcoming Passes

Altitude History

Altitude vs Time

uPlot chart will show altitude changes over time

Two-Line Element Set

1 56509U 23065G 25259.92040656 -.00000526 00000-0 -23885-4 0 9991
2 56509 43.0027 74.6999 0001227 232.0556 128.0175 15.02529020130488
Epoch: Sep 16, 2025 • Age: 24 hours

Current Status

Altitude 558.8 km
Velocity 7.58 km/s
Sub-Earth Point 12.33°N, 114.11°E
Launch Date May 14, 2023
Age 2.3 years
Type internet

Technical Details

Classification Payload
Mass 305.00 kg
Dry Mass 290.00 kg
Total Mass 305.00 kg
Length 0.20 m
Diameter 2.80 m
Span 9.00 m
Shape Box + pan
Manufacturer SPXS
Bus Type Starlink
Phase Status In Orbit
Owner/State SPXS/US

Large Constellations

Loading constellations...